HAZ2936 ZYHB-ZSHC

Flight info

Callsign HAZ2936
Flight time 2h 42m
Altitude 32100
Route DUKIR W655 NIMEM W205 NULRA A588 BIDIB A345 DDG DCT BIGBU DCT DONVO A326 IKADI W113 SOSMA W108 MATNU W115 PINOT B221 SUPAR W505 DSH
Aircraft A321/M-SDE3FGHIRWY/LB1D1

Departure

Time 2026-04-21 10:06
Airport Harbin Taiping International Airport (ZYHB)

Arrival

Time 2026-04-21 12:48
Airport Hangzhou Xiaoshan International Airport (ZSHC)
Time Latitude Longitude Altitude Speed Heading
2026-04-21 09:43 45.61622 126.23462 465 ft 0 kts 273°
2026-04-21 09:52 45.61622 126.23463 465 ft 2 kts 273°
2026-04-21 09:52 45.61620 126.23499 463 ft 4 kts 282°
2026-04-21 09:53 45.61611 126.23527 463 ft 2 kts 317°
2026-04-21 09:53 45.61592 126.23544 465 ft 4 kts
2026-04-21 09:53 45.61567 126.23533 465 ft 4 kts 35°
2026-04-21 09:53 45.61557 126.23522 465 ft 0 kts 39°
2026-04-21 09:55 45.61561 126.23526 461 ft 3 kts 39°
2026-04-21 09:56 45.61575 126.23590 464 ft 11 kts 112°
2026-04-21 09:56 45.61609 126.23713 464 ft 19 kts 39°
2026-04-21 09:56 45.61669 126.23818 463 ft 11 kts 93°
2026-04-21 09:56 45.61664 126.23908 461 ft 8 kts 58°
2026-04-21 09:57 45.61714 126.23971 462 ft 12 kts 39°
2026-04-21 09:57 45.61798 126.24069 462 ft 19 kts 39°
2026-04-21 09:57 45.61917 126.24209 459 ft 25 kts 39°
2026-04-21 09:57 45.62058 126.24373 459 ft 26 kts 39°
2026-04-21 09:58 45.62193 126.24531 458 ft 25 kts 39°
2026-04-21 09:58 45.62325 126.24685 456 ft 24 kts 40°
2026-04-21 09:58 45.62457 126.24841 456 ft 27 kts 39°
2026-04-21 09:58 45.62614 126.25026 456 ft 28 kts 39°
2026-04-21 09:59 45.62762 126.25198 455 ft 27 kts 39°
2026-04-21 09:59 45.62903 126.25364 454 ft 26 kts 39°
2026-04-21 09:59 45.63041 126.25525 452 ft 25 kts 39°
2026-04-21 09:59 45.63174 126.25682 449 ft 24 kts 39°
2026-04-21 10:00 45.63302 126.25832 451 ft 24 kts 39°
2026-04-21 10:00 45.63427 126.25978 450 ft 23 kts 39°
2026-04-21 10:00 45.63546 126.26117 449 ft 20 kts 39°
2026-04-21 10:00 45.63591 126.26223 449 ft 12 kts 101°
2026-04-21 10:01 45.63568 126.26271 449 ft 0 kts 143°
2026-04-21 10:03 45.63561 126.26277 449 ft 5 kts 147°
2026-04-21 10:03 45.63486 126.26295 449 ft 16 kts 179°
2026-04-21 10:04 45.63403 126.26261 450 ft 9 kts 216°
2026-04-21 10:04 45.63396 126.26252 450 ft 0 kts 218°
2026-04-21 10:04 45.63391 126.26247 450 ft 5 kts 219°
2026-04-21 10:05 45.63213 126.26039 449 ft 69 kts 219°
2026-04-21 10:05 45.62677 126.25411 455 ft 127 kts 219°
2026-04-21 10:05 45.61868 126.24464 467 ft 171 kts 220°
2026-04-21 10:05 45.60919 126.23345 912 ft 180 kts 223°
2026-04-21 10:06 45.60275 126.22595 1350 ft 179 kts 224°
2026-04-21 10:06 45.59316 126.21479 1990 ft 178 kts 224°
2026-04-21 10:06 45.58348 126.20349 2407 ft 186 kts 224°
2026-04-21 10:06 45.56928 126.18683 2576 ft 210 kts 225°
2026-04-21 10:07 45.56157 126.17774 2670 ft 224 kts 224°
2026-04-21 10:07 45.54887 126.16281 2826 ft 249 kts 224°
2026-04-21 10:07 45.53062 126.14152 3636 ft 260 kts 224°
2026-04-21 10:07 45.51653 126.12515 4428 ft 262 kts 224°
2026-04-21 10:08 45.50697 126.11401 4948 ft 264 kts 224°
2026-04-21 10:08 45.49269 126.09742 5718 ft 265 kts 225°
2026-04-21 10:08 45.47832 126.08076 6464 ft 267 kts 225°
2026-04-21 10:08 45.46382 126.06396 7208 ft 270 kts 225°
2026-04-21 10:09 45.44939 126.04717 7927 ft 272 kts 225°
2026-04-21 10:09 45.43448 126.02980 8636 ft 275 kts 225°
2026-04-21 10:09 45.41982 126.01273 9306 ft 277 kts 225°
2026-04-21 10:09 45.40486 125.99532 9989 ft 279 kts 225°
2026-04-21 10:10 45.38914 125.97815 10381 ft 297 kts 219°
2026-04-21 10:10 45.37020 125.96350 10513 ft 323 kts 209°
2026-04-21 10:10 45.34791 125.95329 10642 ft 350 kts 198°
2026-04-21 10:10 45.32280 125.94902 10768 ft 377 kts 186°
2026-04-21 10:11 45.29617 125.94905 11133 ft 387 kts 185°
2026-04-21 10:11 45.26911 125.94891 11714 ft 390 kts 186°
2026-04-21 10:11 45.24191 125.94863 12351 ft 391 kts 187°
2026-04-21 10:11 45.21464 125.94828 12948 ft 393 kts 187°
2026-04-21 10:12 45.18725 125.94796 13464 ft 396 kts 188°
2026-04-21 10:12 45.15958 125.94765 13980 ft 399 kts 188°
2026-04-21 10:12 45.13175 125.94736 14489 ft 402 kts 188°
2026-04-21 10:12 45.10359 125.94712 14957 ft 406 kts 188°
2026-04-21 10:13 45.07525 125.94687 15437 ft 409 kts 189°
2026-04-21 10:13 45.04672 125.94659 15917 ft 412 kts 189°
2026-04-21 10:13 45.01785 125.94629 16407 ft 415 kts 189°
2026-04-21 10:13 44.98891 125.94601 16863 ft 418 kts 189°
2026-04-21 10:14 44.95979 125.94574 17319 ft 421 kts 190°
2026-04-21 10:14 44.93075 125.94549 17737 ft 424 kts 190°
2026-04-21 10:14 44.90118 125.94525 18168 ft 427 kts 190°
2026-04-21 10:14 44.87136 125.94498 18602 ft 430 kts 190°
2026-04-21 10:15 44.84135 125.94472 19040 ft 433 kts 190°
2026-04-21 10:15 44.81118 125.94445 19468 ft 435 kts 190°
2026-04-21 10:15 44.78075 125.94416 19899 ft 438 kts 190°
2026-04-21 10:15 44.75025 125.94361 20311 ft 437 kts 193°
2026-04-21 10:16 44.72030 125.93887 20698 ft 431 kts 199°
2026-04-21 10:16 44.69061 125.93229 21092 ft 433 kts 199°
2026-04-21 10:16 44.66074 125.92562 21507 ft 435 kts 199°
2026-04-21 10:16 44.63075 125.91893 21900 ft 437 kts 199°
2026-04-21 10:17 44.60065 125.91229 22281 ft 440 kts 199°
2026-04-21 10:17 44.57030 125.90565 22642 ft 442 kts 199°
2026-04-21 10:17 44.53983 125.89902 22992 ft 444 kts 199°
2026-04-21 10:17 44.50927 125.89240 23321 ft 447 kts 199°
2026-04-21 10:18 44.47853 125.88574 23644 ft 449 kts 199°
2026-04-21 10:18 44.44751 125.87897 23951 ft 451 kts 199°
2026-04-21 10:18 44.41643 125.87214 24272 ft 453 kts 199°
2026-04-21 10:18 44.38535 125.86532 24576 ft 455 kts 199°
2026-04-21 10:19 44.35384 125.85843 24901 ft 457 kts 199°
2026-04-21 10:19 44.32234 125.85155 25219 ft 459 kts 199°
2026-04-21 10:19 44.29066 125.84467 25502 ft 462 kts 200°
2026-04-21 10:19 44.25883 125.83777 25790 ft 463 kts 200°
2026-04-21 10:20 44.22714 125.83095 26184 ft 462 kts 200°
2026-04-21 10:20 44.19537 125.82415 26573 ft 461 kts 200°
2026-04-21 10:20 44.16364 125.81741 26954 ft 461 kts 200°
2026-04-21 10:20 44.13135 125.81383 27324 ft 473 kts 192°
2026-04-21 10:21 44.09804 125.81682 27667 ft 487 kts 183°
2026-04-21 10:21 44.06437 125.82727 27995 ft 502 kts 173°
2026-04-21 10:21 44.03133 125.84434 28296 ft 510 kts 169°
2026-04-21 10:21 43.99808 125.86150 28554 ft 505 kts 174°
2026-04-21 10:22 43.96443 125.87286 28825 ft 491 kts 183°
2026-04-21 10:22 43.93101 125.87781 29107 ft 477 kts 191°
2026-04-21 10:22 43.89836 125.87683 29407 ft 463 kts 199°
2026-04-21 10:22 43.86682 125.87108 29711 ft 454 kts 203°
2026-04-21 10:23 43.83562 125.86443 30016 ft 454 kts 203°
2026-04-21 10:23 43.80452 125.85778 30340 ft 450 kts 205°
2026-04-21 10:23 43.77461 125.84770 30632 ft 435 kts 213°
2026-04-21 10:23 43.74700 125.83277 30920 ft 419 kts 220°
2026-04-21 10:24 43.72128 125.81459 31213 ft 414 kts 222°
2026-04-21 10:24 43.69571 125.79622 31532 ft 413 kts 222°
2026-04-21 10:24 43.67018 125.77788 31749 ft 414 kts 222°
2026-04-21 10:25 43.61922 125.74149 31800 ft 411 kts 222°
2026-04-21 10:25 43.56843 125.70541 31803 ft 410 kts 222°
2026-04-21 10:26 43.51766 125.66942 31801 ft 410 kts 222°
2026-04-21 10:26 43.46735 125.63363 31801 ft 410 kts 223°
2026-04-21 10:27 43.41684 125.59779 31805 ft 408 kts 222°
2026-04-21 10:27 43.36643 125.56220 31804 ft 409 kts 223°
2026-04-21 10:28 43.31587 125.52660 31808 ft 407 kts 223°
2026-04-21 10:28 43.26540 125.49111 31809 ft 407 kts 223°
2026-04-21 10:29 43.21513 125.45572 31807 ft 406 kts 223°
2026-04-21 10:29 43.16478 125.42034 31801 ft 408 kts 223°
2026-04-21 10:30 43.11416 125.38512 31813 ft 407 kts 223°
2026-04-21 10:30 43.06392 125.35010 31818 ft 404 kts 223°
2026-04-21 10:31 43.01391 125.31514 31806 ft 405 kts 223°
2026-04-21 10:31 42.96370 125.27992 31808 ft 405 kts 223°
2026-04-21 10:32 42.91348 125.24499 31806 ft 406 kts 224°
2026-04-21 10:32 42.86342 125.21052 31807 ft 405 kts 223°
2026-04-21 10:33 42.81332 125.17590 31811 ft 406 kts 224°
2026-04-21 10:33 42.76326 125.14070 31829 ft 405 kts 224°
2026-04-21 10:34 42.71332 125.10549 31837 ft 405 kts 224°
2026-04-21 10:34 42.66315 125.07027 31860 ft 407 kts 224°
2026-04-21 10:35 42.61287 125.03513 31864 ft 406 kts 224°
2026-04-21 10:35 42.56277 125.00014 31859 ft 404 kts 224°
2026-04-21 10:36 42.51274 124.96521 31866 ft 404 kts 224°
2026-04-21 10:36 42.46263 124.93031 31869 ft 404 kts 224°
2026-04-21 10:37 42.41263 124.89572 31851 ft 401 kts 224°
2026-04-21 10:37 42.36289 124.86125 31857 ft 403 kts 224°
2026-04-21 10:38 42.31298 124.82663 31834 ft 402 kts 224°
2026-04-21 10:38 42.26350 124.79250 31843 ft 402 kts 224°
2026-04-21 10:39 42.21381 124.75821 31853 ft 402 kts 224°
2026-04-21 10:39 42.16407 124.72391 31865 ft 403 kts 225°
2026-04-21 10:40 42.11374 124.68947 31881 ft 403 kts 224°
2026-04-21 10:40 42.06417 124.65559 31880 ft 401 kts 224°
2026-04-21 10:41 42.01446 124.62163 31867 ft 399 kts 224°
2026-04-21 10:41 41.96499 124.58733 31871 ft 400 kts 225°
2026-04-21 10:42 41.91668 124.55073 31877 ft 397 kts 227°
2026-04-21 10:42 41.86918 124.51372 31891 ft 394 kts 227°
2026-04-21 10:43 41.82165 124.47705 31891 ft 395 kts 226°
2026-04-21 10:43 41.77385 124.44061 31872 ft 395 kts 226°
2026-04-21 10:44 41.72606 124.40438 31869 ft 394 kts 227°
2026-04-21 10:44 41.67843 124.36830 31875 ft 392 kts 227°
2026-04-21 10:45 41.63078 124.33223 31880 ft 393 kts 226°
2026-04-21 10:45 41.58315 124.29622 31885 ft 394 kts 227°
2026-04-21 10:46 41.53533 124.26012 31896 ft 395 kts 227°
2026-04-21 10:46 41.48744 124.22393 31906 ft 395 kts 227°
2026-04-21 10:47 41.43961 124.18845 31900 ft 400 kts 223°
2026-04-21 10:47 41.41297 124.17485 31895 ft 422 kts 213°
2026-04-21 10:47 41.38327 124.16738 31894 ft 449 kts 202°
2026-04-21 10:47 41.35108 124.16740 31892 ft 473 kts 193°
2026-04-21 10:48 41.31827 124.17045 31899 ft 473 kts 193°
2026-04-21 10:48 41.25309 124.17632 31898 ft 472 kts 193°
2026-04-21 10:49 41.18737 124.18187 31912 ft 473 kts 193°
2026-04-21 10:49 41.12178 124.18733 31910 ft 472 kts 193°
2026-04-21 10:50 41.06689 124.19206 31909 ft 472 kts 193°
2026-04-21 10:50 40.99063 124.19931 31930 ft 474 kts 191°
2026-04-21 10:51 40.92454 124.20726 31950 ft 477 kts 191°
2026-04-21 10:51 40.85862 124.21534 31959 ft 475 kts 191°
2026-04-21 10:52 40.79305 124.22304 31964 ft 471 kts 191°
2026-04-21 10:52 40.72785 124.23028 31956 ft 469 kts 191°
2026-04-21 10:53 40.66279 124.23749 31961 ft 468 kts 191°
2026-04-21 10:53 40.59796 124.24486 31962 ft 467 kts 190°
2026-04-21 10:54 40.53325 124.25227 31968 ft 466 kts 190°
2026-04-21 10:54 40.46872 124.25963 31964 ft 465 kts 190°
2026-04-21 10:55 40.41514 124.26565 31966 ft 465 kts 190°
2026-04-21 10:55 40.35059 124.27287 31982 ft 465 kts 190°
2026-04-21 10:56 40.28611 124.27999 31983 ft 463 kts 191°
2026-04-21 10:56 40.25452 124.28024 31987 ft 446 kts 199°
2026-04-21 10:56 40.22435 124.27528 31984 ft 429 kts 206°
2026-04-21 10:57 40.16583 124.26009 31992 ft 429 kts 206°
2026-04-21 10:57 40.10728 124.24511 31997 ft 429 kts 206°
2026-04-21 10:58 40.04878 124.23031 32003 ft 428 kts 206°
2026-04-21 10:58 39.99039 124.21545 32005 ft 427 kts 206°
2026-04-21 10:59 39.93198 124.20056 32003 ft 428 kts 206°
2026-04-21 10:59 39.87352 124.18563 32004 ft 428 kts 206°
2026-04-21 11:00 39.81499 124.17080 32011 ft 429 kts 206°
2026-04-21 11:00 39.75643 124.15608 32013 ft 428 kts 206°
2026-04-21 11:01 39.69791 124.14139 32015 ft 428 kts 206°
2026-04-21 11:01 39.63973 124.12670 32017 ft 429 kts 206°
2026-04-21 11:02 39.55189 124.10447 32027 ft 429 kts 205°
2026-04-21 11:02 39.49330 124.08977 32028 ft 429 kts 205°
2026-04-21 11:03 39.43459 124.07518 32034 ft 429 kts 205°
2026-04-21 11:03 39.37599 124.06061 32037 ft 430 kts 205°
2026-04-21 11:04 39.31731 124.04590 32045 ft 429 kts 205°
2026-04-21 11:04 39.25858 124.03125 32052 ft 430 kts 205°
2026-04-21 11:05 39.19986 124.01662 32057 ft 430 kts 205°
2026-04-21 11:05 39.14147 124.00213 32067 ft 430 kts 205°
2026-04-21 11:06 39.08271 123.98760 32076 ft 430 kts 204°
2026-04-21 11:06 39.02403 123.97307 32075 ft 429 kts 204°
2026-04-21 11:07 38.96540 123.95856 32076 ft 429 kts 204°
2026-04-21 11:07 38.90677 123.94405 32077 ft 429 kts 204°
2026-04-21 11:08 38.84823 123.92962 32082 ft 429 kts 203°
2026-04-21 11:08 38.78961 123.91525 32100 ft 429 kts 203°
2026-04-21 11:09 38.73103 123.90091 32118 ft 429 kts 203°
2026-04-21 11:09 38.67341 123.88402 32120 ft 415 kts 211°
2026-04-21 11:10 38.61999 123.85710 32120 ft 412 kts 213°
2026-04-21 11:10 38.56661 123.83010 32118 ft 413 kts 213°
2026-04-21 11:11 38.51320 123.80320 32127 ft 413 kts 212°
2026-04-21 11:11 38.45973 123.77631 32125 ft 413 kts 212°
2026-04-21 11:12 38.40629 123.74946 32135 ft 412 kts 212°
2026-04-21 11:12 38.35290 123.72269 32133 ft 413 kts 212°
2026-04-21 11:13 38.29951 123.69593 32135 ft 413 kts 212°
2026-04-21 11:13 38.24595 123.66916 32134 ft 413 kts 212°
2026-04-21 11:14 38.19241 123.64250 32137 ft 413 kts 212°
2026-04-21 11:14 38.13894 123.61584 32128 ft 413 kts 212°
2026-04-21 11:15 38.08542 123.58916 32133 ft 413 kts 212°
2026-04-21 11:15 38.03192 123.56254 32133 ft 413 kts 212°
2026-04-21 11:16 37.97868 123.53620 32146 ft 414 kts 212°
2026-04-21 11:16 37.92470 123.50955 32150 ft 414 kts 212°
2026-04-21 11:17 37.87117 123.48307 32155 ft 413 kts 212°
2026-04-21 11:17 37.81793 123.45673 32156 ft 414 kts 212°
2026-04-21 11:18 37.76386 123.43007 32159 ft 414 kts 212°
2026-04-21 11:18 37.71049 123.40390 32163 ft 415 kts 211°
2026-04-21 11:19 37.65661 123.37748 32166 ft 415 kts 211°
2026-04-21 11:19 37.60281 123.35107 32169 ft 415 kts 211°
2026-04-21 11:20 37.57508 123.33983 32165 ft 426 kts 203°
2026-04-21 11:20 37.54526 123.33433 32165 ft 440 kts 194°
2026-04-21 11:20 37.48315 123.33550 32164 ft 448 kts 189°
2026-04-21 11:21 37.42083 123.33749 32160 ft 448 kts 189°
2026-04-21 11:21 37.35845 123.33930 32163 ft 448 kts 190°
2026-04-21 11:22 37.29600 123.34105 32162 ft 449 kts 190°
2026-04-21 11:22 37.23358 123.34282 32164 ft 449 kts 190°
2026-04-21 11:23 37.17111 123.34453 32165 ft 449 kts 189°
2026-04-21 11:23 37.10856 123.34632 32165 ft 450 kts 189°
2026-04-21 11:24 37.04600 123.34811 32172 ft 450 kts 189°
2026-04-21 11:24 36.98343 123.34983 32175 ft 450 kts 189°
2026-04-21 11:25 36.92081 123.35154 32178 ft 450 kts 189°
2026-04-21 11:25 36.85856 123.35338 32182 ft 450 kts 189°
2026-04-21 11:26 36.79552 123.35519 32181 ft 450 kts 189°
2026-04-21 11:26 36.73316 123.35691 32178 ft 451 kts 189°
2026-04-21 11:27 36.66997 123.35863 32182 ft 451 kts 189°
2026-04-21 11:27 36.60772 123.36036 32178 ft 451 kts 189°
2026-04-21 11:28 36.54498 123.36210 32178 ft 451 kts 189°
2026-04-21 11:28 36.48222 123.36396 32179 ft 451 kts 189°
2026-04-21 11:29 36.41949 123.36567 32178 ft 451 kts 189°
2026-04-21 11:29 36.35672 123.36730 32176 ft 451 kts 189°
2026-04-21 11:30 36.29393 123.36907 32176 ft 452 kts 189°
2026-04-21 11:30 36.23101 123.37086 32178 ft 452 kts 189°
2026-04-21 11:31 36.16805 123.37270 32173 ft 452 kts 189°
2026-04-21 11:31 36.10510 123.37451 32173 ft 452 kts 189°
2026-04-21 11:32 36.04223 123.37623 32174 ft 452 kts 189°
2026-04-21 11:32 35.97932 123.37793 32180 ft 452 kts 189°
2026-04-21 11:33 35.91644 123.37972 32180 ft 453 kts 188°
2026-04-21 11:33 35.85347 123.38157 32184 ft 453 kts 188°
2026-04-21 11:34 35.79049 123.38337 32183 ft 453 kts 188°
2026-04-21 11:34 35.72749 123.38512 32187 ft 453 kts 188°
2026-04-21 11:35 35.66445 123.38678 32194 ft 453 kts 188°
2026-04-21 11:35 35.60134 123.38854 32195 ft 454 kts 188°
2026-04-21 11:36 35.53820 123.39027 32199 ft 454 kts 188°
2026-04-21 11:36 35.47504 123.39206 32200 ft 454 kts 188°
2026-04-21 11:37 35.41179 123.39392 32202 ft 455 kts 188°
2026-04-21 11:37 35.34900 123.39563 32199 ft 454 kts 188°
2026-04-21 11:38 35.28571 123.39726 32198 ft 455 kts 188°
2026-04-21 11:38 35.22243 123.39892 32194 ft 455 kts 188°
2026-04-21 11:39 35.15912 123.40069 32196 ft 455 kts 188°
2026-04-21 11:39 35.09587 123.40262 32200 ft 455 kts 187°
2026-04-21 11:40 35.03262 123.40452 32206 ft 455 kts 187°
2026-04-21 11:40 34.96936 123.40679 32201 ft 456 kts 186°
2026-04-21 11:41 34.90578 123.41210 32195 ft 459 kts 184°
2026-04-21 11:41 34.84221 123.41855 32193 ft 459 kts 184°
2026-04-21 11:42 34.77859 123.42453 32193 ft 458 kts 184°
2026-04-21 11:42 34.71497 123.42989 32186 ft 458 kts 185°
2026-04-21 11:43 34.65133 123.43502 32187 ft 459 kts 184°
2026-04-21 11:43 34.58764 123.44052 32191 ft 459 kts 184°
2026-04-21 11:44 34.52426 123.44608 32191 ft 459 kts 184°
2026-04-21 11:44 34.46045 123.45165 32194 ft 460 kts 184°
2026-04-21 11:45 34.40704 123.45620 32197 ft 460 kts 184°
2026-04-21 11:45 34.33283 123.46253 32193 ft 459 kts 184°
2026-04-21 11:46 34.27984 123.46706 32193 ft 459 kts 184°
2026-04-21 11:46 34.21618 123.47258 32199 ft 459 kts 184°
2026-04-21 11:47 34.15416 123.46794 32189 ft 435 kts 205°
2026-04-21 11:47 34.12689 123.45369 32188 ft 421 kts 218°
2026-04-21 11:47 34.10382 123.43284 32186 ft 411 kts 230°
2026-04-21 11:48 34.07237 123.37729 32181 ft 399 kts 251°
2026-04-21 11:48 34.05837 123.31292 32179 ft 397 kts 258°
2026-04-21 11:49 34.04563 123.24790 32178 ft 398 kts 258°
2026-04-21 11:49 34.03271 123.18298 32182 ft 399 kts 258°
2026-04-21 11:50 34.01973 123.11795 32178 ft 399 kts 258°
2026-04-21 11:50 34.00672 123.05285 32185 ft 402 kts 258°
2026-04-21 11:51 33.99350 122.98645 32190 ft 414 kts 258°
2026-04-21 11:51 33.97994 122.91808 32189 ft 422 kts 257°
2026-04-21 11:52 33.96614 122.84923 32189 ft 423 kts 257°
2026-04-21 11:52 33.95229 122.78078 32192 ft 423 kts 257°
2026-04-21 11:53 33.93830 122.71137 32194 ft 424 kts 257°
2026-04-21 11:53 33.92441 122.64301 32189 ft 424 kts 257°
2026-04-21 11:54 33.91038 122.57399 32190 ft 424 kts 257°
2026-04-21 11:54 33.89638 122.50505 32192 ft 425 kts 257°
2026-04-21 11:55 33.88232 122.43598 32196 ft 425 kts 257°
2026-04-21 11:55 33.86812 122.36712 32197 ft 424 kts 257°
2026-04-21 11:56 33.85388 122.29814 32193 ft 424 kts 257°
2026-04-21 11:56 33.83968 122.22936 32189 ft 424 kts 257°
2026-04-21 11:57 33.82555 122.16061 32190 ft 424 kts 257°
2026-04-21 11:57 33.81132 122.09189 32187 ft 423 kts 257°
2026-04-21 11:58 33.79694 122.02322 32186 ft 423 kts 257°
2026-04-21 11:58 33.78258 121.95466 32180 ft 423 kts 257°
2026-04-21 11:59 33.76819 121.88607 32170 ft 423 kts 257°
2026-04-21 11:59 33.75384 121.81749 32167 ft 424 kts 257°
2026-04-21 12:00 33.73731 121.74957 32161 ft 427 kts 245°
2026-04-21 12:00 33.71997 121.72041 32160 ft 435 kts 229°
2026-04-21 12:00 33.69516 121.69899 32148 ft 448 kts 211°
2026-04-21 12:01 33.66484 121.68850 32140 ft 465 kts 192°
2026-04-21 12:01 33.63202 121.69104 32134 ft 484 kts 172°
2026-04-21 12:01 33.56801 121.71938 32121 ft 493 kts 164°
2026-04-21 12:02 33.47284 121.76743 32108 ft 496 kts 163°
2026-04-21 12:03 33.40904 121.79915 32116 ft 496 kts 164°
2026-04-21 12:03 33.34503 121.83014 32138 ft 497 kts 164°
2026-04-21 12:04 33.28101 121.86106 32142 ft 496 kts 164°
2026-04-21 12:04 33.21743 121.89187 32152 ft 496 kts 164°
2026-04-21 12:05 33.15358 121.92292 32157 ft 496 kts 164°
2026-04-21 12:05 33.08967 121.95386 32157 ft 495 kts 164°
2026-04-21 12:06 33.02584 121.98464 32161 ft 495 kts 163°
2026-04-21 12:06 32.96213 122.01531 32167 ft 494 kts 164°
2026-04-21 12:07 32.89851 122.04596 32170 ft 493 kts 163°
2026-04-21 12:07 32.83493 122.07661 32171 ft 493 kts 163°
2026-04-21 12:08 32.77143 122.10718 32171 ft 492 kts 163°
2026-04-21 12:08 32.70796 122.13756 32169 ft 492 kts 163°
2026-04-21 12:09 32.64449 122.16788 32165 ft 491 kts 163°
2026-04-21 12:09 32.58122 122.19816 32163 ft 490 kts 163°
2026-04-21 12:10 32.51801 122.22834 32159 ft 490 kts 163°
2026-04-21 12:10 32.45484 122.25840 32156 ft 489 kts 163°
2026-04-21 12:11 32.39168 122.28838 32156 ft 489 kts 163°
2026-04-21 12:11 32.32857 122.31834 32152 ft 489 kts 163°
2026-04-21 12:12 32.26545 122.34828 32156 ft 489 kts 163°
2026-04-21 12:12 32.20240 122.37813 32155 ft 488 kts 163°
2026-04-21 12:13 32.13941 122.40802 32145 ft 488 kts 163°
2026-04-21 12:13 32.07650 122.43783 32141 ft 487 kts 163°
2026-04-21 12:14 32.01346 122.46752 32141 ft 487 kts 163°
2026-04-21 12:14 31.95045 122.49710 32140 ft 487 kts 163°
2026-04-21 12:15 31.88753 122.52668 32138 ft 488 kts 163°
2026-04-21 12:15 31.82447 122.55626 32140 ft 487 kts 163°
2026-04-21 12:16 31.76149 122.58581 32141 ft 487 kts 163°
2026-04-21 12:16 31.69745 122.60530 32130 ft 473 kts 182°
2026-04-21 12:17 31.63358 122.59627 32128 ft 457 kts 202°
2026-04-21 12:17 31.60448 122.58188 32125 ft 451 kts 213°
2026-04-21 12:17 31.57844 122.56200 32125 ft 446 kts 220°
2026-04-21 12:18 31.52870 122.51843 32115 ft 447 kts 220°
2026-04-21 12:18 31.47868 122.47498 32109 ft 447 kts 220°
2026-04-21 12:19 31.42447 122.43847 32114 ft 456 kts 205°
2026-04-21 12:19 31.36517 122.41207 32108 ft 456 kts 205°
2026-04-21 12:20 31.30573 122.38557 32120 ft 457 kts 205°
2026-04-21 12:20 31.24625 122.35908 32111 ft 457 kts 205°
2026-04-21 12:21 31.18683 122.33271 32124 ft 457 kts 205°
2026-04-21 12:21 31.12736 122.30636 32130 ft 457 kts 205°
2026-04-21 12:22 31.06783 122.28004 32122 ft 458 kts 205°
2026-04-21 12:22 31.00820 122.25369 31601 ft 457 kts 205°
2026-04-21 12:22 30.97838 122.24149 31203 ft 450 kts 203°
2026-04-21 12:23 30.94860 122.23081 30955 ft 448 kts 201°
2026-04-21 12:23 30.91862 122.22104 30706 ft 447 kts 200°
2026-04-21 12:23 30.88858 122.21170 30459 ft 447 kts 200°
2026-04-21 12:23 30.85853 122.20206 30206 ft 445 kts 204°
2026-04-21 12:24 30.83025 122.18821 29956 ft 439 kts 213°
2026-04-21 12:24 30.80478 122.16918 29707 ft 433 kts 222°
2026-04-21 12:24 30.78263 122.14567 29458 ft 429 kts 230°
2026-04-21 12:24 30.76402 122.11871 29205 ft 427 kts 238°
2026-04-21 12:25 30.74789 122.08980 28975 ft 428 kts 239°
2026-04-21 12:25 30.73164 122.06072 28716 ft 429 kts 239°
2026-04-21 12:25 30.71529 122.03165 28457 ft 430 kts 239°
2026-04-21 12:25 30.69889 122.00254 28213 ft 432 kts 239°
2026-04-21 12:26 30.68244 121.97337 27960 ft 431 kts 239°
2026-04-21 12:26 30.66617 121.94454 27707 ft 433 kts 239°
2026-04-21 12:26 30.64965 121.91526 27460 ft 434 kts 239°
2026-04-21 12:26 30.63307 121.88589 27207 ft 435 kts 239°
2026-04-21 12:27 30.61648 121.85648 26965 ft 437 kts 238°
2026-04-21 12:27 30.59981 121.82694 26708 ft 438 kts 238°
2026-04-21 12:27 30.58309 121.79733 26459 ft 439 kts 238°
2026-04-21 12:27 30.56634 121.76766 26208 ft 440 kts 238°
2026-04-21 12:28 30.54953 121.73792 25956 ft 442 kts 238°
2026-04-21 12:28 30.53264 121.70807 25706 ft 443 kts 238°
2026-04-21 12:28 30.51572 121.67818 25456 ft 444 kts 238°
2026-04-21 12:28 30.49874 121.64821 25206 ft 445 kts 238°
2026-04-21 12:29 30.48170 121.61818 24956 ft 447 kts 238°
2026-04-21 12:29 30.46463 121.58808 24176 ft 448 kts 238°
2026-04-21 12:29 30.44746 121.55782 23050 ft 452 kts 238°
2026-04-21 12:29 30.43024 121.52752 22244 ft 448 kts 238°
2026-04-21 12:30 30.41318 121.49753 21417 ft 443 kts 238°
2026-04-21 12:30 30.39630 121.46786 20624 ft 438 kts 238°
2026-04-21 12:30 30.37961 121.43859 19838 ft 434 kts 238°
2026-04-21 12:30 30.36307 121.40958 19053 ft 429 kts 238°
2026-04-21 12:31 30.34672 121.38089 18314 ft 424 kts 238°
2026-04-21 12:31 30.33064 121.35251 17590 ft 419 kts 238°
2026-04-21 12:31 30.31478 121.32442 16891 ft 414 kts 238°
2026-04-21 12:31 30.29915 121.29673 16209 ft 409 kts 238°
2026-04-21 12:32 30.28373 121.26942 15554 ft 403 kts 238°
2026-04-21 12:32 30.27362 121.25153 15141 ft 398 kts 238°
2026-04-21 12:32 30.25349 121.21613 14328 ft 390 kts 237°
2026-04-21 12:32 30.23801 121.19061 13757 ft 383 kts 236°
2026-04-21 12:33 30.22225 121.16601 13196 ft 377 kts 235°
2026-04-21 12:33 30.21181 121.15010 12839 ft 374 kts 234°
2026-04-21 12:33 30.19613 121.12640 12285 ft 368 kts 234°
2026-04-21 12:33 30.18072 121.10303 11747 ft 363 kts 235°
2026-04-21 12:34 30.16568 121.07998 11387 ft 353 kts 234°
2026-04-21 12:34 30.15128 121.05777 11258 ft 337 kts 234°
2026-04-21 12:34 30.13757 121.03649 11134 ft 323 kts 234°
2026-04-21 12:34 30.12445 121.01613 11003 ft 310 kts 234°
2026-04-21 12:35 30.11182 120.99650 10876 ft 298 kts 234°
2026-04-21 12:35 30.09971 120.97770 10748 ft 286 kts 234°
2026-04-21 12:35 30.08803 120.95955 10542 ft 278 kts 234°
2026-04-21 12:35 30.07664 120.94178 10319 ft 274 kts 234°
2026-04-21 12:36 30.06537 120.92411 10074 ft 273 kts 233°
2026-04-21 12:36 30.05416 120.90660 9900 ft 271 kts 233°
2026-04-21 12:36 30.04312 120.88937 9774 ft 270 kts 233°
2026-04-21 12:36 30.03409 120.87007 9647 ft 272 kts 250°
2026-04-21 12:37 30.03098 120.84855 9521 ft 275 kts 268°
2026-04-21 12:37 30.03419 120.82688 9398 ft 283 kts 285°
2026-04-21 12:37 30.04172 120.80556 9178 ft 284 kts 288°
2026-04-21 12:37 30.04929 120.78450 8889 ft 283 kts 287°
2026-04-21 12:38 30.05677 120.76349 8601 ft 282 kts 287°
2026-04-21 12:38 30.06409 120.74281 8313 ft 282 kts 287°
2026-04-21 12:38 30.07143 120.72205 8023 ft 281 kts 287°
2026-04-21 12:38 30.07880 120.70115 7731 ft 281 kts 286°
2026-04-21 12:39 30.08616 120.68027 7437 ft 281 kts 287°
2026-04-21 12:39 30.09353 120.65935 7138 ft 281 kts 286°
2026-04-21 12:39 30.10090 120.63843 6853 ft 281 kts 286°
2026-04-21 12:39 30.10822 120.61759 6558 ft 280 kts 286°
2026-04-21 12:40 30.11549 120.59689 6272 ft 281 kts 286°
2026-04-21 12:40 30.12289 120.57589 5978 ft 281 kts 286°
2026-04-21 12:40 30.13023 120.55517 5732 ft 274 kts 286°
2026-04-21 12:40 30.13719 120.53565 5613 ft 263 kts 285°
2026-04-21 12:41 30.14403 120.51637 5321 ft 258 kts 286°
2026-04-21 12:41 30.15072 120.49728 5120 ft 256 kts 286°
2026-04-21 12:41 30.15594 120.47778 4995 ft 252 kts 272°
2026-04-21 12:41 30.15591 120.45796 4860 ft 246 kts 256°
2026-04-21 12:42 30.15075 120.43892 4180 ft 251 kts 238°
2026-04-21 12:42 30.14289 120.42172 3914 ft 230 kts 238°
2026-04-21 12:42 30.13603 120.40624 3790 ft 205 kts 238°
2026-04-21 12:42 30.12974 120.39199 3715 ft 193 kts 238°
2026-04-21 12:43 30.12373 120.37845 3612 ft 188 kts 239°
2026-04-21 12:43 30.11775 120.36506 3529 ft 187 kts 238°
2026-04-21 12:43 30.11317 120.35094 3373 ft 191 kts 256°
2026-04-21 12:43 30.11338 120.33547 3171 ft 196 kts 278°
2026-04-21 12:44 30.11865 120.32093 2971 ft 199 kts 302°
2026-04-21 12:44 30.12832 120.30954 2775 ft 200 kts 326°
2026-04-21 12:44 30.14090 120.30319 2580 ft 197 kts 349°
2026-04-21 12:44 30.15439 120.30278 2391 ft 194 kts 11°
2026-04-21 12:45 30.16689 120.30795 2209 ft 190 kts 33°
2026-04-21 12:45 30.17680 120.31768 1959 ft 185 kts 53°
2026-04-21 12:45 30.18315 120.33020 1734 ft 176 kts 66°
2026-04-21 12:45 30.18851 120.34236 1482 ft 165 kts 64°
2026-04-21 12:46 30.19368 120.35393 1269 ft 161 kts 64°
2026-04-21 12:46 30.19878 120.36536 1056 ft 158 kts 64°
2026-04-21 12:46 30.20352 120.37603 852 ft 147 kts 64°
2026-04-21 12:46 30.20812 120.38637 665 ft 143 kts 64°
2026-04-21 12:47 30.21281 120.39646 469 ft 142 kts 63°
2026-04-21 12:47 30.21729 120.40653 292 ft 140 kts 64°
2026-04-21 12:47 30.22166 120.41653 102 ft 140 kts 64°
2026-04-21 12:47 30.22597 120.42625 34 ft 125 kts 65°
2026-04-21 12:48 30.22883 120.43288 34 ft 67 kts 63°
2026-04-21 12:48 30.23026 120.43591 35 ft 28 kts 52°
2026-04-21 12:48 30.23159 120.43739 34 ft 21 kts 28°
2026-04-21 12:48 30.23283 120.43818 31 ft 19 kts 32°
2026-04-21 12:49 30.23353 120.43915 32 ft 16 kts 63°
2026-04-21 12:49 30.23428 120.43990 32 ft 14 kts 346°
2026-04-21 12:49 30.23549 120.43922 31 ft 25 kts 333°
2026-04-21 12:49 30.23715 120.43824 32 ft 28 kts 333°
2026-04-21 12:50 30.23885 120.43725 32 ft 27 kts 333°
2026-04-21 12:50 30.24050 120.43630 32 ft 27 kts 333°
2026-04-21 12:50 30.24218 120.43530 32 ft 26 kts 333°
2026-04-21 12:50 30.24380 120.43434 32 ft 26 kts 333°
2026-04-21 12:51 30.24523 120.43346 31 ft 13 kts 317°
2026-04-21 12:51 30.24507 120.43244 31 ft 17 kts 243°
2026-04-21 12:51 30.24440 120.43088 31 ft 23 kts 243°
2026-04-21 12:51 30.24366 120.42923 32 ft 23 kts 243°
2026-04-21 12:52 30.24302 120.42802 32 ft 11 kts 220°
2026-04-21 12:52 30.24239 120.42814 32 ft 9 kts 153°
2026-04-21 12:52 30.24183 120.42847 30 ft 9 kts 153°
2026-04-21 12:52 30.24125 120.42881 31 ft 13 kts 153°
2026-04-21 12:53 30.24086 120.42893 32 ft 3 kts 204°
2026-04-21 12:53 30.24072 120.42876 32 ft 3 kts 237°
2026-04-21 12:53 30.24066 120.42863 32 ft 0 kts 242°
2026-04-21 12:53 30.24062 120.42854 30 ft 1 kts 242°
2026-04-21 12:54 30.24059 120.42848 31 ft 0 kts 242°